Location: Atlantic Beach
(40.5890°N, 73.7290°W)
Time: 06:44:53
(UTC+00:00)

N. Korean satellite - Pass Details

Date: 31 January 2021
Orbit: 451 x 502 km, 97.2° (Epoch: 06 March)

Event Time Altitude Azimuth Distance (km) Brightness Sun altitude
Rises 09:54:46 0° 20° (NNE) 2,482 10.4 -25.0°
Reaches altitude 10° 09:56:57 10° 30° (NNE) 1,598 9.5 -24.6°
Maximum altitude 10:00:07 35° 98° (E) 748 8.0 -23.9°
Drops below altitude 10° 10:03:15 10° 166° (SSE) 1,578 9.3 -23.4°
Sets 10:05:22 0° 175° (S) 2,445 10.2 -23.0°
